Location: Castro Valley
(37.6940°N, 122.0850°W)
Time: 16:03:20
(UTC-07:00)

PANSAT - Visible Passes

Search period start: 30 March 2015 00:00
Search period end: 09 April 2015 00:00
Orbit: 485 x 491 km, 28.5° (Epoch: 29 March)

Date Brightness Start Highest point End Pass type
(mag) Time Alt. Az. Time Alt. Az. Time Alt. Az.
02 Apr 9.7 20:53:10 10° SSW 20:54:41 14° S 20:54:41 14° S visible
03 Apr 9.6 20:26:07 10° SSW 20:28:10 14° SSE 20:29:29 12° SE visible
04 Apr 9.7 19:59:02 10° SSW 20:01:10 14° SSE 20:03:19 10° SE visible
04 Apr 10.0 21:37:46 10° SW 21:38:31 14° SW 21:38:31 14° SW visible
05 Apr 9.3 21:10:44 10° SW 21:13:09 20° S 21:13:09 20° S visible
06 Apr 9.2 20:43:43 10° SW 20:46:35 20° S 20:47:45 18° SSE visible
07 Apr 9.3 20:16:41 10° SW 20:19:33 20° S 20:22:17 11° SE visible
08 Apr 10.0 21:29:54 10° SW 21:31:06 13° SSW 21:31:06 13° SSW visible
